Time,TemperatureF,DewpointF,PressureIn,WindDirection,WindDirectionDegrees,WindSpeedMPH,WindSpeedGustMPH,Humidity,HourlyPrecipIn,Conditions,Clouds,dailyrainin,SoftwareType,DateUTC
2013-09-18 00:07:00,69.4,61.1,30.17,ENE,78,0.0,0.0,75,0.00,,,0.00,Wunderground v.1.15,2013-09-18 04:07:00,
2013-09-18 00:12:00,69.3,61.0,30.17,ENE,78,0.0,0.0,75,0.00,,,0.00,Wunderground v.1.15,2013-09-18 04:12:00,
2013-09-18 00:17:00,69.1,61.2,30.17,ENE,78,0.0,0.0,76,0.00,,,0.00,Wunderground v.1.15,2013-09-18 04:17:00,
2013-09-18 00:22:00,68.9,61.0,30.17,ENE,78,0.0,0.0,76,0.00,,,0.00,Wunderground v.1.15,2013-09-18 04:22:00,
2013-09-18 00:27:00,68.8,60.9,30.17,ENE,78,0.0,0.0,76,0.00,,,0.00,Wunderground v.1.15,2013-09-18 04:27:00,
2013-09-18 00:32:00,68.7,61.2,30.17,ENE,78,0.0,0.0,77,0.00,,,0.00,Wunderground v.1.15,2013-09-18 04:32:00,
2013-09-18 00:37:00,68.6,61.1,30.17,ENE,78,0.0,0.0,77,0.00,,,0.00,Wunderground v.1.15,2013-09-18 04:37:00,
2013-09-18 00:43:00,68.5,61.0,30.17,ENE,78,0.0,0.0,77,0.00,,,0.00,Wunderground v.1.15,2013-09-18 04:43:00,
2013-09-18 00:48:00,68.3,60.8,30.17,ENE,78,0.0,0.0,77,0.00,,,0.00,Wunderground v.1.15,2013-09-18 04:48:00,
2013-09-18 00:53:00,68.3,60.8,30.17,ENE,78,0.0,0.0,77,0.00,,,0.00,Wunderground v.1.15,2013-09-18 04:53:00,
2013-09-18 00:58:00,68.3,61.2,30.17,ENE,78,0.0,0.0,78,0.00,,,0.00,Wunderground v.1.15,2013-09-18 04:58:00,
2013-09-18 01:04:00,68.3,61.2,30.17,ENE,78,0.0,0.0,78,0.00,,,0.00,Wunderground v.1.15,2013-09-18 05:04:00,
2013-09-18 01:09:00,68.4,61.3,30.17,ENE,78,0.0,0.0,78,0.00,,,0.00,Wunderground v.1.15,2013-09-18 05:09:00,
2013-09-18 01:14:00,68.4,61.3,30.17,ENE,78,0.0,0.0,78,0.00,,,0.00,Wunderground v.1.15,2013-09-18 05:14:00,
2013-09-18 01:19:00,68.5,61.4,30.17,ENE,78,0.0,0.0,78,0.00,,,0.00,Wunderground v.1.15,2013-09-18 05:19:00,
2013-09-18 01:25:00,68.5,61.4,30.17,ENE,78,0.0,0.0,78,0.00,,,0.00,Wunderground v.1.15,2013-09-18 05:25:00,
2013-09-18 01:30:00,68.5,61.4,30.16,ENE,78,0.0,0.0,78,0.00,,,0.00,Wunderground v.1.15,2013-09-18 05:30:00,
2013-09-18 01:35:00,68.4,61.6,30.17,ENE,78,0.0,0.0,79,0.00,,,0.00,Wunderground v.1.15,2013-09-18 05:35:00,
2013-09-18 01:42:00,68.4,61.3,30.17,ENE,78,0.0,0.0,78,0.00,,,0.00,Wunderground v.1.15,2013-09-18 05:42:00,
2013-09-18 01:48:00,68.4,61.3,30.16,ENE,78,0.0,0.0,78,0.00,,,0.00,Wunderground v.1.15,2013-09-18 05:48:00,
2013-09-18 01:53:00,68.4,61.3,30.17,ENE,78,0.0,0.0,78,0.00,,,0.00,Wunderground v.1.15,2013-09-18 05:53:00,
2013-09-18 01:58:00,68.3,61.2,30.17,ENE,78,0.0,0.0,78,0.00,,,0.00,Wunderground v.1.15,2013-09-18 05:58:00,
2013-09-18 02:03:00,68.1,61.3,30.17,ENE,78,0.0,0.0,79,0.00,,,0.00,Wunderground v.1.15,2013-09-18 06:03:00,
2013-09-18 02:10:00,68.0,61.2,30.17,ENE,78,0.0,0.0,79,0.00,,,0.00,Wunderground v.1.15,2013-09-18 06:10:00,
2013-09-18 02:15:00,67.9,61.5,30.17,ENE,78,0.0,0.0,80,0.00,,,0.00,Wunderground v.1.15,2013-09-18 06:15:00,
2013-09-18 02:20:00,67.7,61.7,30.17,ENE,78,0.0,0.0,81,0.00,,,0.00,Wunderground v.1.15,2013-09-18 06:20:00,
2013-09-18 02:25:00,67.5,61.1,30.16,ENE,78,0.0,0.0,80,0.00,,,0.00,Wunderground v.1.15,2013-09-18 06:25:00,
2013-09-18 02:30:00,67.3,61.6,30.17,ENE,78,0.0,0.0,82,0.00,,,0.00,Wunderground v.1.15,2013-09-18 06:30:00,
2013-09-18 02:35:00,67.0,61.3,30.17,ENE,78,0.0,0.0,82,0.00,,,0.00,Wunderground v.1.15,2013-09-18 06:35:00,
2013-09-18 02:40:00,66.7,61.0,30.17,ENE,78,0.0,0.0,82,0.00,,,0.00,Wunderground v.1.15,2013-09-18 06:40:00,
2013-09-18 02:45:00,66.4,61.1,30.17,ENE,78,0.0,0.0,83,0.00,,,0.00,Wunderground v.1.15,2013-09-18 06:45:00,
2013-09-18 02:50:00,66.1,61.1,30.17,ENE,78,0.0,0.0,84,0.00,,,0.00,Wunderground v.1.15,2013-09-18 06:50:00,
2013-09-18 02:55:00,65.8,60.5,30.16,ENE,78,0.0,0.0,83,0.00,,,0.00,Wunderground v.1.15,2013-09-18 06:55:00,
2013-09-18 03:00:00,65.7,60.1,30.16,ENE,78,0.0,0.0,82,0.00,,,0.00,Wunderground v.1.15,2013-09-18 07:00:00,
2013-09-18 03:05:00,65.6,60.0,30.16,ENE,78,0.0,0.0,82,0.00,,,0.00,Wunderground v.1.15,2013-09-18 07:05:00,
2013-09-18 03:10:00,65.6,59.6,30.16,ENE,78,0.0,0.0,81,0.00,,,0.00,Wunderground v.1.15,2013-09-18 07:10:00,
2013-09-18 03:15:00,65.7,59.0,30.16,ENE,78,0.0,0.0,79,0.00,,,0.00,Wunderground v.1.15,2013-09-18 07:15:00,
2013-09-18 03:20:00,65.7,59.0,30.16,ENE,78,0.0,0.0,79,0.00,,,0.00,Wunderground v.1.15,2013-09-18 07:20:00,
2013-09-18 03:25:00,65.8,58.7,30.16,ENE,78,0.0,0.0,78,0.00,,,0.00,Wunderground v.1.15,2013-09-18 07:25:00,
2013-09-18 03:30:00,65.9,58.1,30.16,ENE,78,0.0,0.0,76,0.00,,,0.00,Wunderground v.1.15,2013-09-18 07:30:00,
2013-09-18 03:35:00,66.1,57.9,30.16,ENE,78,0.0,0.0,75,0.00,,,0.00,Wunderground v.1.15,2013-09-18 07:35:00,
2013-09-18 03:40:00,66.1,57.9,30.16,ENE,78,0.0,0.0,75,0.00,,,0.00,Wunderground v.1.15,2013-09-18 07:40:00,
2013-09-18 03:45:00,66.2,58.0,30.16,ENE,78,0.0,0.0,75,0.00,,,0.00,Wunderground v.1.15,2013-09-18 07:45:00,
2013-09-18 03:50:00,66.2,58.0,30.16,ENE,78,0.0,0.0,75,0.00,,,0.00,Wunderground v.1.15,2013-09-18 07:50:00,
2013-09-18 03:56:00,66.3,57.8,30.16,ENE,78,0.0,0.0,74,0.00,,,0.00,Wunderground v.1.15,2013-09-18 07:56:00,
2013-09-18 04:01:00,66.3,57.8,30.16,ENE,78,0.0,0.0,74,0.00,,,0.00,Wunderground v.1.15,2013-09-18 08:01:00,
2013-09-18 04:06:00,66.3,58.1,30.16,ENE,78,0.0,0.0,75,0.00,,,0.00,Wunderground v.1.15,2013-09-18 08:06:00,
2013-09-18 04:11:00,66.3,58.1,30.16,ENE,78,0.0,0.0,75,0.00,,,0.00,Wunderground v.1.15,2013-09-18 08:11:00,
2013-09-18 04:16:00,66.3,58.5,30.16,ENE,78,0.0,0.0,76,0.00,,,0.00,Wunderground v.1.15,2013-09-18 08:16:00,
2013-09-18 04:21:00,66.3,58.5,30.16,ENE,78,0.0,0.0,76,0.00,,,0.00,Wunderground v.1.15,2013-09-18 08:21:00,
2013-09-18 04:26:00,66.3,58.5,30.15,ENE,78,0.0,0.0,76,0.00,,,0.00,Wunderground v.1.15,2013-09-18 08:26:00,
2013-09-18 04:31:00,66.2,58.4,30.16,ENE,78,0.0,0.0,76,0.00,,,0.00,Wunderground v.1.15,2013-09-18 08:31:00,
2013-09-18 04:36:00,66.2,58.4,30.16,ENE,77,0.0,0.0,76,0.00,,,0.00,Wunderground v.1.15,2013-09-18 08:36:00,
2013-09-18 04:41:00,66.2,58.4,30.16,ENE,78,0.0,0.0,76,0.00,,,0.00,Wunderground v.1.15,2013-09-18 08:41:00,
2013-09-18 04:46:00,66.1,58.3,30.16,ENE,78,0.0,0.0,76,0.00,,,0.00,Wunderground v.1.15,2013-09-18 08:46:00,
2013-09-18 04:51:00,66.0,58.2,30.15,ENE,78,0.0,0.0,76,0.00,,,0.00,Wunderground v.1.15,2013-09-18 08:51:00,
2013-09-18 04:56:00,65.9,58.5,30.16,ENE,78,0.0,0.0,77,0.00,,,0.00,Wunderground v.1.15,2013-09-18 08:56:00,
2013-09-18 05:01:00,65.8,58.4,30.15,SSW,207,0.0,2.0,77,0.00,,,0.00,Wunderground v.1.15,2013-09-18 09:01:00,
2013-09-18 05:06:00,65.8,58.4,30.16,SSW,205,0.0,2.0,77,0.00,,,0.00,Wunderground v.1.15,2013-09-18 09:06:00,
2013-09-18 05:11:00,65.6,58.2,30.16,SSW,203,0.0,0.0,77,0.00,,,0.00,Wunderground v.1.15,2013-09-18 09:11:00,
2013-09-18 05:16:00,65.5,58.5,30.16,ESE,121,0.0,0.0,78,0.00,,,0.00,Wunderground v.1.15,2013-09-18 09:16:00,
2013-09-18 05:21:00,65.4,58.4,30.16,ESE,121,0.0,0.0,78,0.00,,,0.00,Wunderground v.1.15,2013-09-18 09:21:00,
2013-09-18 05:26:00,65.4,58.7,30.16,ESE,110,0.0,0.0,79,0.00,,,0.00,Wunderground v.1.15,2013-09-18 09:26:00,
2013-09-18 05:31:00,65.3,58.6,30.17,ESE,107,0.0,0.0,79,0.00,,,0.00,Wunderground v.1.15,2013-09-18 09:31:00,
2013-09-18 05:36:00,65.3,58.6,30.16,East,80,0.0,0.0,79,0.00,,,0.00,Wunderground v.1.15,2013-09-18 09:36:00,
2013-09-18 05:41:00,65.2,58.5,30.17,East,80,0.0,0.0,79,0.00,,,0.00,Wunderground v.1.15,2013-09-18 09:41:00,
2013-09-18 05:46:00,65.2,58.5,30.17,East,88,0.0,0.0,79,0.00,,,0.00,Wunderground v.1.15,2013-09-18 09:46:00,
2013-09-18 05:51:00,65.1,58.4,30.17,East,88,0.0,0.0,79,0.00,,,0.00,Wunderground v.1.15,2013-09-18 09:51:00,
2013-09-18 05:56:00,65.0,58.3,30.17,East,84,0.0,0.0,79,0.00,,,0.00,Wunderground v.1.15,2013-09-18 09:56:00,
2013-09-18 06:01:00,65.0,58.7,30.17,East,84,0.0,0.0,80,0.00,,,0.00,Wunderground v.1.15,2013-09-18 10:01:00,
2013-09-18 06:06:00,64.9,58.6,30.17,East,84,0.0,0.0,80,0.00,,,0.00,Wunderground v.1.15,2013-09-18 10:06:00,
2013-09-18 06:11:00,64.8,58.5,30.17,East,84,0.0,0.0,80,0.00,,,0.00,Wunderground v.1.15,2013-09-18 10:11:00,
2013-09-18 06:16:00,64.7,58.4,30.17,East,84,0.0,0.0,80,0.00,,,0.00,Wunderground v.1.15,2013-09-18 10:16:00,
2013-09-18 06:21:00,64.7,58.4,30.18,East,84,0.0,0.0,80,0.00,,,0.00,Wunderground v.1.15,2013-09-18 10:21:00,
2013-09-18 06:26:00,64.6,58.3,30.18,East,85,0.0,0.0,80,0.00,,,0.00,Wunderground v.1.15,2013-09-18 10:26:00,
2013-09-18 06:31:00,64.6,58.6,30.18,East,85,0.0,0.0,81,0.00,,,0.00,Wunderground v.1.15,2013-09-18 10:31:00,
2013-09-18 06:36:00,64.7,58.4,30.18,East,85,0.0,0.0,80,0.00,,,0.00,Wunderground v.1.15,2013-09-18 10:36:00,
2013-09-18 06:41:00,64.7,58.4,30.18,East,79,0.0,0.0,80,0.00,,,0.00,Wunderground v.1.15,2013-09-18 10:41:00,
2013-09-18 06:46:00,64.7,58.4,30.19,East,81,0.0,0.0,80,0.00,,,0.00,Wunderground v.1.15,2013-09-18 10:46:00,
2013-09-18 06:51:00,64.7,58.0,30.19,East,88,0.0,0.0,79,0.00,,,0.00,Wunderground v.1.15,2013-09-18 10:51:00,
2013-09-18 06:56:00,64.8,58.1,30.19,East,86,0.0,0.0,79,0.00,,,0.00,Wunderground v.1.15,2013-09-18 10:56:00,
2013-09-18 07:01:00,64.7,58.0,30.19,East,86,0.0,0.0,79,0.00,,,0.00,Wunderground v.1.15,2013-09-18 11:01:00,
2013-09-18 07:06:00,64.7,58.0,30.19,East,86,0.0,0.0,79,0.00,,,0.00,Wunderground v.1.15,2013-09-18 11:06:00,
2013-09-18 07:11:00,64.7,58.4,30.19,East,84,0.0,0.0,80,0.00,,,0.00,Wunderground v.1.15,2013-09-18 11:11:00,
2013-09-18 07:16:00,64.6,58.3,30.20,East,83,0.0,0.0,80,0.00,,,0.00,Wunderground v.1.15,2013-09-18 11:16:00,
2013-09-18 07:21:00,64.5,58.2,30.19,East,83,0.0,0.0,80,0.00,,,0.00,Wunderground v.1.15,2013-09-18 11:21:00,
2013-09-18 07:26:00,64.5,58.2,30.20,East,83,0.0,0.0,80,0.00,,,0.00,Wunderground v.1.15,2013-09-18 11:26:00,
2013-09-18 07:31:00,64.3,58.0,30.20,East,80,0.0,0.0,80,0.00,,,0.00,Wunderground v.1.15,2013-09-18 11:31:00,
2013-09-18 07:36:00,64.2,57.9,30.20,East,80,0.0,0.0,80,0.00,,,0.00,Wunderground v.1.15,2013-09-18 11:36:00,
2013-09-18 07:41:00,64.2,58.2,30.20,East,80,0.0,0.0,81,0.00,,,0.00,Wunderground v.1.15,2013-09-18 11:41:00,
2013-09-18 07:46:00,64.1,58.1,30.20,East,80,0.0,0.0,81,0.00,,,0.00,Wunderground v.1.15,2013-09-18 11:46:00,
2013-09-18 07:51:00,64.0,58.1,30.20,East,80,0.0,0.0,81,0.00,,,0.00,Wunderground v.1.15,2013-09-18 11:51:00,
2013-09-18 07:57:00,64.0,58.1,30.21,East,80,0.0,0.0,81,0.00,,,0.00,Wunderground v.1.15,2013-09-18 11:57:00,
2013-09-18 08:02:00,64.0,58.1,30.20,East,80,0.0,0.0,81,0.00,,,0.00,Wunderground v.1.15,2013-09-18 12:02:00,
2013-09-18 08:07:00,63.9,58.0,30.20,East,79,0.0,0.0,81,0.00,,,0.00,Wunderground v.1.15,2013-09-18 12:07:00,
2013-09-18 08:12:00,63.9,58.0,30.20,East,80,0.0,0.0,81,0.00,,,0.00,Wunderground v.1.15,2013-09-18 12:12:00,
2013-09-18 08:17:00,63.9,58.0,30.21,East,81,0.0,4.0,81,0.00,,,0.00,Wunderground v.1.15,2013-09-18 12:17:00,
2013-09-18 08:22:00,63.9,58.0,30.21,ENE,78,0.0,4.0,81,0.00,,,0.00,Wunderground v.1.15,2013-09-18 12:22:00,
2013-09-18 08:23:00,59.5,57.2,29.90,ESE,123,0.0,0.0,92,0.00,,,0.00,Wunderground v.1.15,2013-09-18 12:23:00,
2013-09-18 08:25:00,59.6,57.3,29.91,ESE,123,0.0,0.0,92,0.00,,,0.00,Wunderground v.1.15,2013-09-18 12:25:00,
2013-09-18 08:26:00,59.6,57.3,29.90,ESE,123,0.0,0.0,92,0.00,,,0.00,Wunderground v.1.15,2013-09-18 12:26:00,
2013-09-18 08:27:00,63.9,58.0,30.21,East,84,0.0,0.0,81,0.00,,,0.00,Wunderground v.1.15,2013-09-18 12:27:00,
2013-09-18 08:28:00,59.7,57.4,29.91,ESE,123,0.0,0.0,92,0.00,,,0.00,Wunderground v.1.15,2013-09-18 12:28:00,
2013-09-18 08:29:00,59.7,57.4,29.91,ESE,123,0.0,0.0,92,0.00,,,0.00,Wunderground v.1.15,2013-09-18 12:29:00,
2013-09-18 08:30:00,59.8,57.2,29.91,ESE,123,0.0,0.0,91,0.00,,,0.00,Wunderground v.1.15,2013-09-18 12:30:00,
2013-09-18 08:31:00,59.8,57.2,29.91,ESE,123,0.0,0.0,91,0.00,,,0.00,Wunderground v.1.15,2013-09-18 12:31:00,
2013-09-18 08:32:00,64.0,57.7,30.21,East,84,0.0,2.0,80,0.00,,,0.00,Wunderground v.1.15,2013-09-18 12:32:00,
2013-09-18 08:33:00,59.9,57.6,29.90,ESE,123,0.0,0.0,92,0.00,,,0.00,Wunderground v.1.15,2013-09-18 12:33:00,
2013-09-18 08:34:00,59.9,57.6,29.90,ESE,123,0.0,0.0,92,0.00,,,0.00,Wunderground v.1.15,2013-09-18 12:34:00,
2013-09-18 08:37:00,64.0,57.7,30.21,East,84,0.0,0.0,80,0.00,,,0.00,Wunderground v.1.15,2013-09-18 12:37:00,
2013-09-18 08:42:00,64.1,57.8,30.21,East,84,0.0,0.0,80,0.00,,,0.00,Wunderground v.1.15,2013-09-18 12:42:00,
2013-09-18 08:47:00,64.2,57.9,30.22,East,101,0.0,0.0,80,0.00,,,0.00,Wunderground v.1.15,2013-09-18 12:47:00,
2013-09-18 08:52:00,64.3,58.0,30.22,East,93,0.0,0.0,80,0.00,,,0.00,Wunderground v.1.15,2013-09-18 12:52:00,
2013-09-18 08:57:00,64.4,58.1,30.21,East,94,0.0,0.0,80,0.00,,,0.00,Wunderground v.1.15,2013-09-18 12:57:00,
2013-09-18 09:02:00,64.4,58.1,30.21,East,96,0.0,3.0,80,0.00,,,0.00,Wunderground v.1.15,2013-09-18 13:02:00,
2013-09-18 09:07:00,64.5,58.2,30.22,East,79,0.0,0.0,80,0.00,,,0.00,Wunderground v.1.15,2013-09-18 13:07:00,
2013-09-18 09:12:00,64.5,57.8,30.22,East,82,1.0,5.0,79,0.00,,,0.00,Wunderground v.1.15,2013-09-18 13:12:00,
2013-09-18 09:17:00,64.4,57.7,30.22,East,86,0.0,1.0,79,0.00,,,0.00,Wunderground v.1.15,2013-09-18 13:17:00,
2013-09-18 09:22:00,64.3,57.6,30.22,ENE,64,0.0,3.0,79,0.00,,,0.00,Wunderground v.1.15,2013-09-18 13:22:00,
2013-09-18 09:27:00,64.5,57.8,30.22,East,86,0.0,0.0,79,0.00,,,0.00,Wunderground v.1.15,2013-09-18 13:27:00,
2013-09-18 09:32:00,64.7,58.0,30.22,East,84,0.0,0.0,79,0.00,,,0.00,Wunderground v.1.15,2013-09-18 13:32:00,
2013-09-18 09:37:00,64.9,57.9,30.22,ENE,70,0.0,0.0,78,0.00,,,0.00,Wunderground v.1.15,2013-09-18 13:37:00,
2013-09-18 09:42:00,65.0,58.0,30.22,ENE,69,0.0,3.0,78,0.00,,,0.00,Wunderground v.1.15,2013-09-18 13:42:00,
2013-09-18 09:47:00,65.0,58.0,30.22,ENE,74,2.0,2.0,78,0.00,,,0.00,Wunderground v.1.15,2013-09-18 13:47:00,
2013-09-18 09:52:00,65.2,58.2,30.22,East,83,0.0,3.0,78,0.00,,,0.00,Wunderground v.1.15,2013-09-18 13:52:00,
2013-09-18 09:57:00,65.6,58.2,30.22,East,84,3.0,4.0,77,0.00,,,0.00,Wunderground v.1.15,2013-09-18 13:57:00,
2013-09-18 10:02:00,66.0,58.6,30.22,ENE,69,0.0,4.0,77,0.00,,,0.00,Wunderground v.1.15,2013-09-18 14:02:00,
2013-09-18 10:08:00,66.7,58.5,30.22,NNE,26,0.0,1.0,75,0.00,,,0.00,Wunderground v.1.15,2013-09-18 14:08:00,
2013-09-18 10:13:00,67.2,59.0,30.22,West,263,0.0,4.0,75,0.00,,,0.00,Wunderground v.1.15,2013-09-18 14:13:00,
2013-09-18 10:18:00,67.7,58.7,30.22,ENE,67,3.0,3.0,73,0.00,,,0.00,Wunderground v.1.15,2013-09-18 14:18:00,
2013-09-18 10:23:00,68.0,58.6,30.22,ENE,78,0.0,3.0,72,0.00,,,0.00,Wunderground v.1.15,2013-09-18 14:23:00,
2013-09-18 10:28:00,68.4,59.0,30.22,SE,126,0.0,1.0,72,0.00,,,0.00,Wunderground v.1.15,2013-09-18 14:28:00,
2013-09-18 10:33:00,68.7,59.7,30.22,SSE,157,2.0,4.0,73,0.00,,,0.00,Wunderground v.1.15,2013-09-18 14:33:00,
2013-09-18 10:38:00,68.9,59.1,30.22,ENE,67,4.0,5.0,71,0.00,,,0.00,Wunderground v.1.15,2013-09-18 14:38:00,
2013-09-18 10:44:00,68.8,59.4,30.23,ENE,74,0.0,5.0,72,0.00,,,0.00,Wunderground v.1.15,2013-09-18 14:44:00,
2013-09-18 10:49:00,69.0,59.2,30.23,NNE,26,0.0,4.0,71,0.00,,,0.00,Wunderground v.1.15,2013-09-18 14:49:00,
2013-09-18 10:54:00,69.0,59.2,30.23,ENE,72,0.0,4.0,71,0.00,,,0.00,Wunderground v.1.15,2013-09-18 14:54:00,
2013-09-18 10:59:00,69.0,59.2,30.23,NE,39,2.0,4.0,71,0.00,,,0.00,Wunderground v.1.15,2013-09-18 14:59:00,
2013-09-18 11:04:00,69.2,59.8,30.22,ENE,57,0.0,4.0,72,0.00,,,0.00,Wunderground v.1.15,2013-09-18 15:04:00,
2013-09-18 11:09:00,69.4,59.6,30.22,ENE,61,0.0,1.0,71,0.00,,,0.00,Wunderground v.1.15,2013-09-18 15:09:00,
2013-09-18 11:14:00,69.7,59.5,30.22,NE,47,0.0,1.0,70,0.00,,,0.00,Wunderground v.1.15,2013-09-18 15:14:00,
2013-09-18 11:19:00,69.9,59.3,30.22,NE,53,2.0,4.0,69,0.00,,,0.00,Wunderground v.1.15,2013-09-18 15:19:00,
2013-09-18 11:24:00,70.0,59.4,30.22,NE,37,2.0,4.0,69,0.00,,,0.00,Wunderground v.1.15,2013-09-18 15:24:00,
2013-09-18 11:29:00,70.3,60.1,30.22,SSE,150,0.0,4.0,70,0.00,,,0.00,Wunderground v.1.15,2013-09-18 15:29:00,
2013-09-18 11:34:00,70.9,59.8,30.22,ESE,114,0.0,4.0,68,0.00,,,0.00,Wunderground v.1.15,2013-09-18 15:34:00,
2013-09-18 11:39:00,71.4,59.9,30.22,ENE,67,0.0,0.0,67,0.00,,,0.00,Wunderground v.1.15,2013-09-18 15:39:00,
2013-09-18 11:45:00,71.5,59.5,30.22,SSW,195,5.0,5.0,66,0.00,,,0.00,Wunderground v.1.15,2013-09-18 15:45:00,
2013-09-18 11:50:00,71.4,59.9,30.22,ENE,61,2.0,4.0,67,0.00,,,0.00,Wunderground v.1.15,2013-09-18 15:50:00,
2013-09-18 11:55:00,71.6,59.6,30.21,East,94,0.0,4.0,66,0.00,,,0.00,Wunderground v.1.15,2013-09-18 15:55:00,
2013-09-18 12:00:00,72.0,60.0,30.21,East,89,0.0,5.0,66,0.00,,,0.00,Wunderground v.1.15,2013-09-18 16:00:00,
2013-09-18 12:05:00,72.1,59.7,30.21,ENE,63,2.0,6.0,65,0.00,,,0.00,Wunderground v.1.15,2013-09-18 16:05:00,
2013-09-18 12:10:00,72.1,60.1,30.21,South,187,2.0,4.0,66,0.00,,,0.00,Wunderground v.1.15,2013-09-18 16:10:00,
2013-09-18 12:15:00,72.2,59.8,30.21,NE,50,4.0,6.0,65,0.00,,,0.00,Wunderground v.1.15,2013-09-18 16:15:00,
2013-09-18 12:20:00,72.1,60.1,30.21,NE,50,0.0,4.0,66,0.00,,,0.00,Wunderground v.1.15,2013-09-18 16:20:00,
2013-09-18 12:25:00,72.0,60.0,30.21,ENE,64,1.0,5.0,66,0.00,,,0.00,Wunderground v.1.15,2013-09-18 16:25:00,
2013-09-18 12:30:00,71.9,60.8,30.21,ENE,77,1.0,4.0,68,0.00,,,0.00,Wunderground v.1.15,2013-09-18 16:30:00,
2013-09-18 12:35:00,72.2,60.6,30.21,ENE,76,0.0,4.0,67,0.00,,,0.00,Wunderground v.1.15,2013-09-18 16:35:00,
2013-09-18 12:40:00,72.5,60.9,30.21,SE,136,0.0,6.0,67,0.00,,,0.00,Wunderground v.1.15,2013-09-18 16:40:00,
2013-09-18 12:45:00,72.9,60.4,30.20,ENE,57,3.0,6.0,65,0.00,,,0.00,Wunderground v.1.15,2013-09-18 16:45:00,
2013-09-18 12:50:00,72.9,61.7,30.20,ESE,115,2.0,3.0,68,0.00,,,0.00,Wunderground v.1.15,2013-09-18 16:50:00,
2013-09-18 12:55:00,73.4,61.3,30.21,East,86,0.0,5.0,66,0.00,,,0.00,Wunderground v.1.15,2013-09-18 16:55:00,
2013-09-18 13:00:00,73.9,61.4,30.21,ENE,73,1.0,2.0,65,0.00,,,0.00,Wunderground v.1.15,2013-09-18 17:00:00,
2013-09-18 13:05:00,73.7,60.8,30.20,NNE,32,3.0,5.0,64,0.00,,,0.00,Wunderground v.1.15,2013-09-18 17:05:00,
2013-09-18 13:10:00,73.6,60.7,30.20,ENE,66,1.0,4.0,64,0.00,,,0.00,Wunderground v.1.15,2013-09-18 17:10:00,
2013-09-18 13:15:00,73.9,61.0,30.20,ESE,103,0.0,4.0,64,0.00,,,0.00,Wunderground v.1.15,2013-09-18 17:15:00,
2013-09-18 13:20:00,74.4,61.0,30.20,South,169,0.0,7.0,63,0.00,,,0.00,Wunderground v.1.15,2013-09-18 17:20:00,
2013-09-18 13:25:00,75.0,61.5,30.19,NNE,13,0.0,7.0,63,0.00,,,0.00,Wunderground v.1.15,2013-09-18 17:25:00,
2013-09-18 13:30:00,75.5,61.1,30.19,NNW,336,4.0,4.0,61,0.00,,,0.00,Wunderground v.1.15,2013-09-18 17:30:00,
2013-09-18 13:35:00,75.3,60.9,30.19,NE,51,1.0,4.0,61,0.00,,,0.00,Wunderground v.1.15,2013-09-18 17:35:00,
2013-09-18 13:41:00,75.4,61.0,30.19,South,169,0.0,2.0,61,0.00,,,0.00,Wunderground v.1.15,2013-09-18 17:41:00,
2013-09-18 13:46:00,75.9,60.5,30.18,ENE,61,0.0,3.0,59,0.00,,,0.00,Wunderground v.1.15,2013-09-18 17:46:00,
2013-09-18 13:51:00,76.3,60.9,30.18,South,170,4.0,6.0,59,0.00,,,0.00,Wunderground v.1.15,2013-09-18 17:51:00,
2013-09-18 13:56:00,76.7,60.8,30.18,ESE,104,0.0,6.0,58,0.00,,,0.00,Wunderground v.1.15,2013-09-18 17:56:00,
2013-09-18 14:01:00,76.9,60.5,30.18,ENE,71,5.0,5.0,57,0.00,,,0.00,Wunderground v.1.15,2013-09-18 18:01:00,
2013-09-18 14:06:00,76.4,60.0,30.17,ENE,75,0.0,1.0,57,0.00,,,0.00,Wunderground v.1.15,2013-09-18 18:06:00,
2013-09-18 14:11:00,76.2,60.3,30.17,ENE,61,0.0,5.0,58,0.00,,,0.00,Wunderground v.1.15,2013-09-18 18:11:00,
2013-09-18 14:16:00,76.6,61.2,30.17,ESE,123,0.0,2.0,59,0.00,,,0.00,Wunderground v.1.15,2013-09-18 18:16:00,
2013-09-18 14:21:00,77.4,60.5,30.16,SSW,197,2.0,3.0,56,0.00,,,0.00,Wunderground v.1.15,2013-09-18 18:21:00,
2013-09-18 14:26:00,77.9,60.4,30.17,ENE,70,0.0,1.0,55,0.00,,,0.00,Wunderground v.1.15,2013-09-18 18:26:00,
2013-09-18 14:31:00,77.9,59.9,30.16,ENE,74,0.0,4.0,54,0.00,,,0.00,Wunderground v.1.15,2013-09-18 18:31:00,
2013-09-18 14:36:00,77.1,58.6,30.16,NNE,32,1.0,2.0,53,0.00,,,0.00,Wunderground v.1.15,2013-09-18 18:36:00,
2013-09-18 14:41:00,76.3,58.4,30.16,ENE,70,0.0,4.0,54,0.00,,,0.00,Wunderground v.1.15,2013-09-18 18:41:00,
2013-09-18 14:46:00,76.3,58.9,30.16,ENE,72,0.0,1.0,55,0.00,,,0.00,Wunderground v.1.15,2013-09-18 18:46:00,
2013-09-18 14:51:00,76.7,59.3,30.16,NE,55,1.0,6.0,55,0.00,,,0.00,Wunderground v.1.15,2013-09-18 18:51:00,
2013-09-18 14:56:00,77.0,59.1,30.15,ENE,71,2.0,2.0,54,0.00,,,0.00,Wunderground v.1.15,2013-09-18 18:56:00,
2013-09-18 15:01:00,77.4,59.5,30.15,West,265,2.0,4.0,54,0.00,,,0.00,Wunderground v.1.15,2013-09-18 19:01:00,
2013-09-18 15:06:00,77.3,59.4,30.15,East,86,1.0,1.0,54,0.00,,,0.00,Wunderground v.1.15,2013-09-18 19:06:00,
2013-09-18 15:11:00,77.9,60.4,30.15,ENE,76,0.0,1.0,55,0.00,,,0.00,Wunderground v.1.15,2013-09-18 19:11:00,
2013-09-18 15:16:00,78.5,59.9,30.15,NNE,22,0.0,0.0,53,0.00,,,0.00,Wunderground v.1.15,2013-09-18 19:16:00,
2013-09-18 15:21:00,78.4,59.9,30.15,NE,38,0.0,7.0,53,0.00,,,0.00,Wunderground v.1.15,2013-09-18 19:21:00,
2013-09-18 15:26:00,78.5,57.7,30.14,South,174,0.0,2.0,49,0.00,,,0.00,Wunderground v.1.15,2013-09-18 19:26:00,
2013-09-18 15:31:00,79.0,58.2,30.14,East,90,0.0,5.0,49,0.00,,,0.00,Wunderground v.1.15,2013-09-18 19:31:00,
2013-09-18 15:36:00,79.3,57.9,30.14,ENE,78,0.0,0.0,48,0.00,,,0.00,Wunderground v.1.15,2013-09-18 19:36:00,
2013-09-18 15:41:00,79.7,58.3,30.14,South,175,0.0,0.0,48,0.00,,,0.00,Wunderground v.1.15,2013-09-18 19:41:00,
2013-09-18 15:46:00,79.5,57.5,30.14,SSW,199,0.0,0.0,47,0.00,,,0.00,Wunderground v.1.15,2013-09-18 19:46:00,
2013-09-18 15:51:00,79.0,58.2,30.14,South,182,0.0,4.0,49,0.00,,,0.00,Wunderground v.1.15,2013-09-18 19:51:00,
2013-09-18 15:57:00,79.0,58.8,30.13,South,178,0.0,0.0,50,0.00,,,0.00,Wunderground v.1.15,2013-09-18 19:57:00,
2013-09-18 16:02:00,79.3,59.6,30.13,ENE,68,2.0,2.0,51,0.00,,,0.00,Wunderground v.1.15,2013-09-18 20:02:00,
2013-09-18 16:07:00,79.2,59.5,30.12,East,79,0.0,0.0,51,0.00,,,0.00,Wunderground v.1.15,2013-09-18 20:07:00,
2013-09-18 16:12:00,79.3,60.1,30.12,East,79,0.0,0.0,52,0.00,,,0.00,Wunderground v.1.15,2013-09-18 20:12:00,
2013-09-18 16:17:00,79.4,59.7,30.12,NE,53,0.0,0.0,51,0.00,,,0.00,Wunderground v.1.15,2013-09-18 20:17:00,
2013-09-18 16:22:00,79.3,60.1,30.12,East,83,0.0,0.0,52,0.00,,,0.00,Wunderground v.1.15,2013-09-18 20:22:00,
2013-09-18 16:27:00,79.2,59.5,30.12,WSW,252,0.0,1.0,51,0.00,,,0.00,Wunderground v.1.15,2013-09-18 20:27:00,
2013-09-18 16:32:00,79.1,59.4,30.12,SSW,209,2.0,8.0,51,0.00,,,0.00,Wunderground v.1.15,2013-09-18 20:32:00,
2013-09-18 16:37:00,79.2,60.1,30.12,South,184,0.0,3.0,52,0.00,,,0.00,Wunderground v.1.15,2013-09-18 20:37:00,
2013-09-18 16:42:00,79.5,60.3,30.11,South,170,5.0,5.0,52,0.00,,,0.00,Wunderground v.1.15,2013-09-18 20:42:00,
2013-09-18 16:47:00,79.8,60.1,30.11,South,186,0.0,1.0,51,0.00,,,0.00,Wunderground v.1.15,2013-09-18 20:47:00,
2013-09-18 16:52:00,80.1,59.8,30.11,South,182,0.0,1.0,50,0.00,,,0.00,Wunderground v.1.15,2013-09-18 20:52:00,
2013-09-18 16:57:00,80.3,60.5,30.11,SSE,163,0.0,0.0,51,0.00,,,0.00,Wunderground v.1.15,2013-09-18 20:57:00,
2013-09-18 17:02:00,80.6,60.8,30.11,SSE,155,0.0,0.0,51,0.00,,,0.00,Wunderground v.1.15,2013-09-18 21:02:00,
2013-09-18 17:07:00,80.6,60.2,30.11,South,173,0.0,7.0,50,0.00,,,0.00,Wunderground v.1.15,2013-09-18 21:07:00,
2013-09-18 17:12:00,80.5,60.1,30.11,South,183,0.0,7.0,50,0.00,,,0.00,Wunderground v.1.15,2013-09-18 21:12:00,
2013-09-18 17:17:00,80.7,60.9,30.11,South,183,0.0,1.0,51,0.00,,,0.00,Wunderground v.1.15,2013-09-18 21:17:00,
2013-09-18 17:22:00,81.1,60.7,30.11,SE,132,0.0,1.0,50,0.00,,,0.00,Wunderground v.1.15,2013-09-18 21:22:00,
2013-09-18 17:28:00,81.1,60.7,30.11,ENE,58,0.0,0.0,50,0.00,,,0.00,Wunderground v.1.15,2013-09-18 21:28:00,
2013-09-18 17:33:00,80.2,60.4,30.11,NE,39,3.0,5.0,51,0.00,,,0.00,Wunderground v.1.15,2013-09-18 21:33:00,
2013-09-18 17:38:00,79.2,60.6,30.11,ENE,59,2.0,4.0,53,0.00,,,0.00,Wunderground v.1.15,2013-09-18 21:38:00,
2013-09-18 17:43:00,78.6,60.0,30.11,NE,44,3.0,6.0,53,0.00,,,0.00,Wunderground v.1.15,2013-09-18 21:43:00,
2013-09-18 17:48:00,78.2,60.2,30.11,NE,49,3.0,6.0,54,0.00,,,0.00,Wunderground v.1.15,2013-09-18 21:48:00,
2013-09-18 17:53:00,78.0,60.0,30.11,ENE,68,2.0,6.0,54,0.00,,,0.00,Wunderground v.1.15,2013-09-18 21:53:00,
2013-09-18 17:58:00,77.9,60.4,30.11,ENE,59,2.0,3.0,55,0.00,,,0.00,Wunderground v.1.15,2013-09-18 21:58:00,
2013-09-18 18:03:00,78.1,60.6,30.11,NE,53,2.0,4.0,55,0.00,,,0.00,Wunderground v.1.15,2013-09-18 22:03:00,
2013-09-18 18:08:00,78.0,60.5,30.10,NE,52,1.0,3.0,55,0.00,,,0.00,Wunderground v.1.15,2013-09-18 22:08:00,
2013-09-18 18:13:00,77.8,60.3,30.11,NE,50,4.0,5.0,55,0.00,,,0.00,Wunderground v.1.15,2013-09-18 22:13:00,
2013-09-18 18:18:00,77.5,60.1,30.10,ENE,59,0.0,4.0,55,0.00,,,0.00,Wunderground v.1.15,2013-09-18 22:18:00,
2013-09-18 18:23:00,77.4,60.5,30.10,NE,46,0.0,4.0,56,0.00,,,0.00,Wunderground v.1.15,2013-09-18 22:23:00,
2013-09-18 18:28:00,77.5,61.1,30.11,NE,46,0.0,2.0,57,0.00,,,0.00,Wunderground v.1.15,2013-09-18 22:28:00,
2013-09-18 18:33:00,77.3,60.9,30.11,NE,46,0.0,2.0,57,0.00,,,0.00,Wunderground v.1.15,2013-09-18 22:33:00,
2013-09-18 18:39:00,77.1,61.2,30.11,NE,42,1.0,6.0,58,0.00,,,0.00,Wunderground v.1.15,2013-09-18 22:39:00,
2013-09-18 18:44:00,76.7,60.8,30.11,ENE,57,0.0,6.0,58,0.00,,,0.00,Wunderground v.1.15,2013-09-18 22:44:00,
2013-09-18 18:49:00,76.4,61.0,30.11,ENE,57,0.0,2.0,59,0.00,,,0.00,Wunderground v.1.15,2013-09-18 22:49:00,
2013-09-18 18:54:00,76.1,61.2,30.10,ENE,57,0.0,2.0,60,0.00,,,0.00,Wunderground v.1.15,2013-09-18 22:54:00,
2013-09-18 18:59:00,75.8,61.4,30.10,ENE,57,0.0,0.0,61,0.00,,,0.00,Wunderground v.1.15,2013-09-18 22:59:00,
2013-09-18 19:04:00,75.5,61.6,30.10,ENE,57,0.0,0.0,62,0.00,,,0.00,Wunderground v.1.15,2013-09-18 23:04:00,
2013-09-18 19:09:00,75.3,61.4,30.10,North,355,0.0,0.0,62,0.00,,,0.00,Wunderground v.1.15,2013-09-18 23:09:00,
2013-09-18 19:14:00,75.0,61.5,30.11,North,5,0.0,0.0,63,0.00,,,0.00,Wunderground v.1.15,2013-09-18 23:14:00,
2013-09-18 19:19:00,74.7,61.3,30.10,North,5,0.0,0.0,63,0.00,,,0.00,Wunderground v.1.15,2013-09-18 23:19:00,
2013-09-18 19:24:00,74.4,61.9,30.10,North,5,0.0,0.0,65,0.00,,,0.00,Wunderground v.1.15,2013-09-18 23:24:00,
2013-09-18 19:29:00,74.0,61.5,30.11,North,5,0.0,0.0,65,0.00,,,0.00,Wunderground v.1.15,2013-09-18 23:29:00,
2013-09-18 19:34:00,73.7,61.6,30.11,North,5,0.0,0.0,66,0.00,,,0.00,Wunderground v.1.15,2013-09-18 23:34:00,
2013-09-18 19:39:00,73.3,61.7,30.11,North,5,0.0,0.0,67,0.00,,,0.00,Wunderground v.1.15,2013-09-18 23:39:00,
2013-09-18 19:44:00,73.0,61.8,30.11,North,5,0.0,0.0,68,0.00,,,0.00,Wunderground v.1.15,2013-09-18 23:44:00,
2013-09-18 19:49:00,72.6,61.8,30.11,North,5,0.0,0.0,69,0.00,,,0.00,Wunderground v.1.15,2013-09-18 23:49:00,
2013-09-18 19:54:00,72.2,61.5,30.11,North,5,0.0,0.0,69,0.00,,,0.00,Wunderground v.1.15,2013-09-18 23:54:00,
2013-09-18 19:59:00,71.9,62.0,30.11,North,5,0.0,0.0,71,0.00,,,0.00,Wunderground v.1.15,2013-09-18 23:59:00,
2013-09-18 20:04:00,71.6,61.7,30.11,North,5,0.0,0.0,71,0.00,,,0.00,Wunderground v.1.15,2013-09-19 00:04:00,
2013-09-18 20:09:00,71.4,61.5,30.11,North,5,0.0,0.0,71,0.00,,,0.00,Wunderground v.1.15,2013-09-19 00:09:00,
2013-09-18 20:14:00,71.2,61.7,30.11,North,5,0.0,0.0,72,0.00,,,0.00,Wunderground v.1.15,2013-09-19 00:14:00,
2013-09-18 20:19:00,71.1,61.6,30.11,North,5,0.0,0.0,72,0.00,,,0.00,Wunderground v.1.15,2013-09-19 00:19:00,
2013-09-18 20:24:00,70.9,61.4,30.11,North,5,0.0,0.0,72,0.00,,,0.00,Wunderground v.1.15,2013-09-19 00:24:00,
2013-09-18 20:29:00,70.8,61.7,30.12,North,5,0.0,0.0,73,0.00,,,0.00,Wunderground v.1.15,2013-09-19 00:29:00,
2013-09-18 20:34:00,70.7,62.4,30.12,North,5,0.0,0.0,75,0.00,,,0.00,Wunderground v.1.15,2013-09-19 00:34:00,
2013-09-18 20:39:00,70.4,62.1,30.12,North,5,0.0,0.0,75,0.00,,,0.00,Wunderground v.1.15,2013-09-19 00:39:00,
2013-09-18 20:44:00,69.9,62.0,30.12,North,5,0.0,0.0,76,0.00,,,0.00,Wunderground v.1.15,2013-09-19 00:44:00,
2013-09-18 20:49:00,69.6,61.7,30.12,North,5,0.0,0.0,76,0.00,,,0.00,Wunderground v.1.15,2013-09-19 00:49:00,
2013-09-18 20:55:00,69.4,61.9,30.12,North,5,0.0,0.0,77,0.00,,,0.00,Wunderground v.1.15,2013-09-19 00:55:00,
2013-09-18 21:00:00,69.2,62.0,30.12,North,5,0.0,0.0,78,0.00,,,0.00,Wunderground v.1.15,2013-09-19 01:00:00,
2013-09-18 21:05:00,69.1,61.9,30.13,North,5,0.0,0.0,78,0.00,,,0.00,Wunderground v.1.15,2013-09-19 01:05:00,
2013-09-18 21:09:00,68.9,62.1,30.13,North,5,0.0,0.0,79,0.00,,,0.00,Wunderground v.1.15,2013-09-19 01:09:00,
2013-09-18 21:15:00,68.7,61.9,30.13,North,5,0.0,0.0,79,0.00,,,0.00,Wunderground v.1.15,2013-09-19 01:15:00,
2013-09-18 21:20:00,68.5,61.7,30.13,North,5,0.0,0.0,79,0.00,,,0.00,Wunderground v.1.15,2013-09-19 01:20:00,
2013-09-18 21:25:00,68.4,61.6,30.13,North,5,0.0,0.0,79,0.00,,,0.00,Wunderground v.1.15,2013-09-19 01:25:00,
2013-09-18 21:30:00,68.3,61.5,30.13,North,5,0.0,0.0,79,0.00,,,0.00,Wunderground v.1.15,2013-09-19 01:30:00,
2013-09-18 21:35:00,68.2,61.4,30.14,North,5,0.0,0.0,79,0.00,,,0.00,Wunderground v.1.15,2013-09-19 01:35:00,
2013-09-18 21:40:00,68.1,61.7,30.14,North,5,0.0,0.0,80,0.00,,,0.00,Wunderground v.1.15,2013-09-19 01:40:00,
2013-09-18 21:45:00,67.8,61.4,30.14,North,5,0.0,0.0,80,0.00,,,0.00,Wunderground v.1.15,2013-09-19 01:45:00,
2013-09-18 21:50:00,67.4,61.4,30.14,North,5,0.0,0.0,81,0.00,,,0.00,Wunderground v.1.15,2013-09-19 01:50:00,
2013-09-18 21:55:00,67.0,61.3,30.13,North,5,0.0,0.0,82,0.00,,,0.00,Wunderground v.1.15,2013-09-19 01:55:00,
2013-09-18 22:00:00,66.6,61.3,30.14,North,5,0.0,0.0,83,0.00,,,0.00,Wunderground v.1.15,2013-09-19 02:00:00,
2013-09-18 22:05:00,66.3,61.0,30.14,North,5,0.0,0.0,83,0.00,,,0.00,Wunderground v.1.15,2013-09-19 02:05:00,
2013-09-18 22:11:00,66.2,61.2,30.14,North,5,0.0,0.0,84,0.00,,,0.00,Wunderground v.1.15,2013-09-19 02:11:00,
2013-09-18 22:16:00,66.1,61.1,30.13,North,5,0.0,0.0,84,0.00,,,0.00,Wunderground v.1.15,2013-09-19 02:16:00,
2013-09-18 22:21:00,65.9,60.9,30.13,North,5,0.0,0.0,84,0.00,,,0.00,Wunderground v.1.15,2013-09-19 02:21:00,
2013-09-18 22:26:00,65.8,61.2,30.13,North,5,0.0,0.0,85,0.00,,,0.00,Wunderground v.1.15,2013-09-19 02:26:00,
2013-09-18 22:31:00,65.6,61.0,30.14,North,5,0.0,0.0,85,0.00,,,0.00,Wunderground v.1.15,2013-09-19 02:31:00,
2013-09-18 22:36:00,65.4,60.8,30.14,North,5,0.0,0.0,85,0.00,,,0.00,Wunderground v.1.15,2013-09-19 02:36:00,
2013-09-18 22:41:00,65.2,60.9,30.14,North,5,0.0,0.0,86,0.00,,,0.00,Wunderground v.1.15,2013-09-19 02:41:00,
2013-09-18 22:46:00,64.9,60.6,30.14,North,5,0.0,0.0,86,0.00,,,0.00,Wunderground v.1.15,2013-09-19 02:46:00,
2013-09-18 22:51:00,64.7,60.7,30.14,North,5,0.0,0.0,87,0.00,,,0.00,Wunderground v.1.15,2013-09-19 02:51:00,
2013-09-18 22:56:00,64.5,60.9,30.14,North,5,0.0,0.0,88,0.00,,,0.00,Wunderground v.1.15,2013-09-19 02:56:00,
2013-09-18 23:01:00,64.4,60.8,30.14,North,5,0.0,0.0,88,0.00,,,0.00,Wunderground v.1.15,2013-09-19 03:01:00,
2013-09-18 23:06:00,64.4,60.8,30.14,North,5,0.0,0.0,88,0.00,,,0.00,Wunderground v.1.15,2013-09-19 03:06:00,
2013-09-18 23:11:00,64.3,60.7,30.14,North,5,0.0,0.0,88,0.00,,,0.00,Wunderground v.1.15,2013-09-19 03:11:00,
2013-09-18 23:16:00,64.0,60.4,30.14,North,5,0.0,0.0,88,0.00,,,0.00,Wunderground v.1.15,2013-09-19 03:16:00,
2013-09-18 23:21:00,63.7,60.1,30.14,North,5,0.0,0.0,88,0.00,,,0.00,Wunderground v.1.15,2013-09-19 03:21:00,
2013-09-18 23:26:00,63.3,59.7,30.14,North,5,0.0,0.0,88,0.00,,,0.00,Wunderground v.1.15,2013-09-19 03:26:00,
2013-09-18 23:31:00,63.1,59.8,30.15,North,5,0.0,0.0,89,0.00,,,0.00,Wunderground v.1.15,2013-09-19 03:31:00,
2013-09-18 23:36:00,62.9,59.6,30.14,North,5,0.0,0.0,89,0.00,,,0.00,Wunderground v.1.15,2013-09-19 03:36:00,
2013-09-18 23:41:00,62.8,59.8,30.14,North,5,0.0,0.0,90,0.00,,,0.00,Wunderground v.1.15,2013-09-19 03:41:00,
2013-09-18 23:44:00,58.1,55.2,29.92,WSW,242,0.0,0.0,90,0.00,,,0.00,Wunderground v.1.15,2013-09-19 03:44:00,
2013-09-18 23:45:00,58.1,55.2,29.92,WSW,242,0.0,0.0,90,0.00,,,0.00,Wunderground v.1.15,2013-09-19 03:45:00,
2013-09-18 23:46:00,62.7,59.7,30.14,North,5,0.0,0.0,90,0.00,,,0.00,Wunderground v.1.15,2013-09-19 03:46:00,
2013-09-18 23:47:00,58.1,55.2,29.92,WSW,242,0.0,0.0,90,0.00,,,0.00,Wunderground v.1.15,2013-09-19 03:47:00,
2013-09-18 23:48:00,58.0,55.1,29.92,WSW,242,0.0,0.0,90,0.00,,,0.00,Wunderground v.1.15,2013-09-19 03:48:00,
2013-09-18 23:49:00,58.0,55.1,29.92,WSW,242,0.0,0.0,90,0.00,,,0.00,Wunderground v.1.15,2013-09-19 03:49:00,
2013-09-18 23:50:00,58.0,55.1,29.92,WSW,242,0.0,0.0,90,0.00,,,0.00,Wunderground v.1.15,2013-09-19 03:50:00,
2013-09-18 23:51:00,62.7,60.0,30.14,North,5,0.0,0.0,91,0.00,,,0.00,Wunderground v.1.15,2013-09-19 03:51:00,
2013-09-18 23:52:00,58.0,55.1,29.92,WSW,242,0.0,0.0,90,0.00,,,0.00,Wunderground v.1.15,2013-09-19 03:52:00,
2013-09-18 23:53:00,57.9,55.0,29.92,WSW,242,0.0,0.0,90,0.00,,,0.00,Wunderground v.1.15,2013-09-19 03:53:00,
2013-09-18 23:54:00,57.9,55.0,29.92,WSW,242,0.0,0.0,90,0.00,,,0.00,Wunderground v.1.15,2013-09-19 03:54:00,
2013-09-18 23:56:00,62.7,60.0,30.14,North,5,0.0,0.0,91,0.00,,,0.00,Wunderground v.1.15,2013-09-19 03:56:00,